www.pogodaiklimat.ru

Погода и климат >> Архив погоды >> Россия >> Краснодарский край >> Лабинск


ПОГОДА в Лабинске

  • Прогноз погоды в Лабинске
  • Монитор погоды в Лабинске

АРХИВ ПОГОДЫ в Лабинске

Время (UTC), дата Ветер
(напр.,м/с)
 
Видим.   Явления Облачность Т
(С)
Тd
(С)
f
(%)
Тe
(С)
Тes
(С)
Комфортность P
(гПа)
Po
(гПа)
Тmin
(С)
Tmax
(С)
R
(мм)
R24
(мм)
S
(см)
12 12.06 Ю 2 10 км 10/3 1000 м
[Sc Ac und]
+26.1 +19.8 68 +32 +35 очень
душно
1008.0 978.4
15 12.06 СВ 1 10 км 10/6 1000 м
[Sc Ac und]
+27.2 +20.0 65 +33 +34 очень
душно
1007.6 978.1 +27.6
18 12.06 В 1 10 км гроза без осадков 10/6 1000 м
[Cb cap Ac und]
+19.8 +16.5 81 +23 +23 комфорт 1008.8 978.5
21 12.06 ЮВ 1 10 км {гроза} 10/3 1000 м
[Sc diur, vesp Ci fib]
+17.4 +15.6 89 +18 +18 1008.5 978.0
00 13.06 Ю 1 10 км 10/0
[Ac und]
+18.3 +15.7 85 +20 +20 1009.1 978.6
03 13.06 ЮВ 1 10 км 8/3 1000 м
[Sc Ac trans]
+20.3 +16.6 79 +24 +25 комфорт 1008.8 978.6 +16.7
06 13.06 З 1 10 км 10/6 600 м
[Cu Sc Ac trans Ci fib]
+24.9 +19.3 71 +30 +33 душно 1009.2 979.5
09 13.06 С 3 10 км 9/6 600 м
[Cu Sc Ac trans Ci fib]
+28.8 +15.1 43 +31 +35 жарко 1008.8 979.4
12 13.06 Ю 2 10 км в посл. час гроза 10/10 600 м
[Cb cap]
+21.7 +16.8 74 +26 +26 душно 1011.2 981.0
15 13.06 Ю 1 10 км {гроза} 10/10 1000 м
[Sc]
+23.5 +16.9 66 +27 +27 душно 1011.1 981.1 +29.4
18 13.06 В 2 10 км {гроза} 10/10 1000 м
[Sc]
+20.9 +16.9 78 +25 +25 комфорт 1012.2 981.9
21 13.06 ЮВ 1 10 км 10/10 1000 м
[Sc]
+18.9 +15.7 82 +21 +21 комфорт 1011.9 981.4
00 14.06 Ю 1 10 км 10/8 1000 м
[Sc Ac trans Ci fib]
+18.4 +15.1 81 +20 +20 1012.1 981.6
03 14.06 ЮВ 1 10 км 10/8 1000 м
[Sc Ac trans Ci fib]
+18.1 +15.7 86 +19 +19 1012.8 982.2 +16.5
06 14.06 В 3 10 км 6/0
[Ac trans Ci sp]
+25.5 +15.9 55 +29 +35 душно 1012.5 982.7
09 14.06 СВ 2 10 км 8/0
[Ac trans Ci sp]
+30.0 +16.0 43 +33 +47 душно 1012.6 983.2
12 14.06 В 3
{10}
10 км 3/3 1000 м
[Cu med, cong]
+31.7 +10.8 28 +32 +39 жарко 1011.2 981.9
15 14.06 В 3
{10}
10 км 10/3 1000 м
[Cu med, cong Ac trans Ci sp]
+29.9 +11.8 33 +31 +31 жарко 1011.3 981.9 +32.3
18 14.06 В 1 10 км 6/0
[Ac trans Ci sp]
+24.6 +14.0 52 +27 +27 жарко 1011.8 981.9
21 14.06 штиль 0 10 км ясно +21.1 +14.5 66 +24 +24 комфорт 1012.1 981.8
00 15.06 В 2 10 км ясно +17.4 +14.9 85 +18 +18 1012.3 981.6
03 15.06 ЮВ 1 10 км ясно +17.9 +15.1 84 +19 +20 1012.6 982.0 +16.3
06 15.06 СВ 3 10 км 3/0
[Ci fib]
+26.6 +17.4 57 +31 +39 душно 1011.4 981.7
09 15.06 СВ 3 10 км 8/0
[Ac trans Ci fib]
+30.2 +16.1 43 +33 +43 душно 1010.0 980.7
12 15.06 В 3 10 км 8/3 1000 м
[Cu hum Ac trans Ci fib]
+31.7 +13.6 33 +33 +38 жарко 1008.7 979.5
15 15.06 В 3 10 км 8/4 600 м
[Cb cap Ac trans Ci fib]
+30.4 +13.7 36 +32 +33 жарко 1008.6 979.4 +32.7
18 15.06 З 1 10 км 8/4 600 м
[Cb cap Ac trans Ci fib]
+22.1 +16.2 69 +26 +26 душно 1009.2 979.1
21 15.06 Ю 1 10 км 4/0
[Ac trans]
+19.7 +16.4 81 +23 +23 комфорт 1009.5 979.2
00 16.06 ЮВ 1 10 км ясно +17.6 +14.3 81 +19 +19 1009.5 979.0
03 16.06 ЮВ 2 10 км 4/0
[Ci fib]
+18.5 +13.5 73 +20 +21 1009.3 978.8 +16.8
06 16.06 В 2 50 км 8/4 1000 м
[Sc Ac trans]
+25.5 +14.0 49 +28 +32 жарко 1008.7 979.0
09 16.06 ЮВ 1 50 км 3/3 1000 м
[Cu med, cong]
+31.4 +16.3 40 +34 +50 душно 1007.9 978.8
12 16.06 СВ 1 10 км 6/4 1000 м
[Cu med, cong Ac trans]
+33.9 +12.7 28 +34 +42 очень
жарко
1006.8 977.9
15 16.06 Ю 3 10 км 10/6 1000 м
[Cb cap Ac und]
+26.0 +15.4 52 +29 +29 душно 1008.0 978.3 +34.0
18 16.06 ЮВ 2 10 км {гроза} 6/6 1000 м
[Sc diur, vesp]
+22.3 +17.2 73 +27 +27 душно 1007.6 977.6
21 16.06 Ю 1 10 км 10/0
[Ac trans Ci fib]
+19.1 +16.0 82 +22 +22 комфорт 1008.1 977.8
00 17.06 Ю 2 10 км 6/0
[Ci fib]
+17.5 +14.7 84 +18 +18 1008.8 978.3
03 17.06 ЮВ 1 10 км 3/0
[Ac trans]
+18.8 +14.3 75 +21 +22 комфорт 1009.4 978.9 +17.0
06 17.06 ЮЗ 1 10 км 3/0
[Ac trans]
+26.8 +16.6 54 +30 +41 душно 1008.6 979.0
09 17.06 СЗ 2 10 км 3/1 1000 м
[Cu med, cong Ac trans]
+31.4 +16.7 41 +35 +50 очень
душно
1008.3 979.2
12 17.06 С 2 10 км 6/4 1000 м
[Cu Sc Ac trans Ci fib]
+32.2 +13.3 32 +33 +40 жарко 1007.8 978.7
15 17.06 С 1 10 км 10/4 1000 м
[Sc Ac trans Ci fib]
+28.8 +14.4 41 +31 +32 жарко 1008.1 978.7 +33.5
18 17.06 ЮВ 2 10 км 8/4 1000 м
[Sc Ac trans Ci fib]
+22.5 +16.7 70 +27 +27 душно 1009.8 979.7
21 17.06 В 1 10 км 8/6 1000 м
[Sc Ac trans Ci fib]
+17.5 +15.2 86 +19 +19 1010.4 979.8
00 18.06 ЮВ 1 10 км 6/0
[Ac trans]
+15.8 +14.2 90 +16 +16 1010.3 979.5
03 18.06 В 1 10 км 3/0
[Ac trans]
+17.1 +14.6 85 +18 +19 1011.0 980.3 +15.0
06 18.06 СВ 1 10 км ясно +28.5 +16.1 47 +32 +45 душно 1010.0 980.5
09 18.06 СВ 3 10 км 3/3 1000 м
[Cu hum]
+31.7 +13.0 32 +33 +44 жарко 1009.5 980.4
12 18.06 С 3-10
{10}
10 км 4/4 1000 м
[Cu hum]
+32.7 +12.3 29 +33 +40 жарко 1008.2 979.1
15 18.06 С 3
{11}
10 км 3/3 1000 м
[Cu hum]
+30.1 +10.7 30 +30 +32 жарко 1008.4 979.1 +33.9
18 18.06 штиль 0 10 км ясно +21.0 +10.9 52 +23 +23 комфорт 1009.8 979.5
21 18.06 С 1 10 км ясно +18.2 +12.4 69 +20 +20 1010.5 979.9
00 19.06 ЮВ 1 10 км ясно +16.4 +13.4 82 +17 +17 1010.5 979.8
03 19.06 ЮВ 1 10 км ясно +17.7 +14.5 82 +19 +20 1010.2 979.6 +15.0
06 19.06 С 1 10 км ясно +27.8 +14.5 44 +30 +43 жарко 1009.2 979.7
09 19.06 С 3 10 км 3/0
[Ac trans]
+33.5 +12.4 28 +34 +47 очень
жарко
1008.2 979.2

 

Местоположение метеостанции Лабинск (Краснодарский край, Россия): широта 44.67 долгота 40.75 высота над уровнем моря 264 м.

В архиве по умолчанию представлена погода в Лабинске за последнюю неделю. Архивные данные за месяц целиком и за предыдущие месяцы, начиная с января 2011 года, Вы можете получить, выбрав интересующий диапазон дат из раскрывающегося списка и нажав кнопку "Ввод!".


*Определитесь, кто Вы:
робот инопланетянин человек

Внимание! Время в таблицах - всемирное. Для получения местного времени необходимо прибавить поправку, которая равна 3 ч.

Смотрите также архив погоды в соседних городах и на ближайших метеорологических станциях:

Погода в Дондуковской (Адыгея, Россия) (38 км)
Погода в Армавире (Краснодарский край, Россия) (45 км)
Погода в Майкопе (Адыгея, Россия) (53 км)
Погода в Шунтуке (Адыгея, Россия) (55 км)
Погода в Псебае (Краснодарский край, Россия) (60 км)
Погода в Отрадной (Краснодарский край, Россия) (65 км)
Погода в Белореченске (Краснодарский край, Россия) (68 км)
Погода в Кропоткине (Краснодарский край, Россия) (86 км)
Погода в Гузерипле (Адыгея, Россия) (89 км)
Погода в Невинномысске (Ставропольский край, Россия) (97 км)

Пояснения к столбцам:

Ветер - указаны скорость ветра в м/с - средняя за 10 мин, порывы в срок и между сроками (в фигурных скобках) и направление, откуда дует ветер: С - северный, СВ - северо-восточный, В - восточный, ЮВ - юго-восточный, Ю - южный, ЮЗ - юго-западный, З - западный, СЗ - северо-западный.
Видимость - горизонтальная дальность видимости в метрах или километрах. При видимости от 1 до 10 км при отсутствии осадков обычно наблюдается дымка, при ухудшении видимости до 1 км и менее - туман. В сухую погоду видимость может ухудшаться дымом, пылью или мглою.
Явления - указаны атмосферные явления, наблюдавшиеся в срок или в последний час перед сроком; фигурными скобками обозначены явления, наблюдавшиеся между сроками (за 1-3 часа до срока); квадратными скобками обозначены град или гололедные отложения с указанием их диаметра в мм.
Облачность - указаны через наклонную черту общая и нижняя облачность в баллах и высота нижней границы облаков в метрах; квадратными скобками обозначены формы облаков: Ci - перистые, Cs - перисто-слоистые, Cc - перисто-кучевые, Ac - высококучевые, As - высокослоистые, Sc - слоисто-кучевые, Ns - слоисто-дождевые, Cu - кучевые, Cb - кучево-дождевые. Подробнее классификацию облаков см. в Атласе облаков (PDF).
T - Температура воздуха - температура, измеренная на высоте 2 м над землей.
Td - Температура точки росы - температура, при понижении до которой содержащийся в воздухе водяной пар достигнет насыщения.
f - Относительная влажность воздуха - влажноcть воздуха, измеренная на высоте 2 м над землей.
Te - Эффективная температура - температура, которую ощущает одетый по сезону человек в тени. Характеристика душности погоды. При расчете учитывается влияние влажности воздуха и скорости ветра на теплоощущения человека.
Tes - Эффективная температура на солнце - температура, которую ощущает человек, с поправкой на солнечный нагрев. Характеристика знойности погоды. Зависит от высоты солнца над горизонтом, облачности и скорости ветра. Ночью, в пасмурную погоду, а также при ветре 12 м/с и более поправка равна нулю.
P - Атмосферное давление - приведенное к уровню моря атмосферное давление.
Po - Атмосферное давление - измеренное на уровне метеостанции атмосферное давление.
Tmin - Минимальная температура - минимум температуры воздуха на высоте 2 м над землей.
Tmax - Максимальная температура - максимум температуры воздуха на высоте 2 м над землей.
R - Количество осадков - Количество выпавших осадков за период времени, мм. При наведении курсора мыши на число - период времени, за который выпало указанное количество осадков.
R24 - Количество осадков - Количество выпавших осадков за 24 часа, мм.
S - Снежный покров - Высота снежного покрова, см. При наведении курсора мыши на число - состояние снежного покрова и степень покрытия местности в баллах.